• In Italy
  • List of Countries
  • For 7 days
  • Water Temperature
  • Satellite Maps
  • Weather Map
  • Weather Widgets
  • user-avatar
    Login

    Hourly Weather Kipungo

    Today, 20 September, Wednesday

    Time Temperature Precipitation Wind Pressure Humidity
    00:00 +21°C° 0 mm 2 mps 654 mmHg 58%
    01:00 +20°C° 0 mm 2 mps 654 mmHg 64%
    02:00 +21°C° 0 mm 1 mps 654 mmHg 68%
    03:00 +20°C° 0 mm 1 mps 654 mmHg 72%
    04:00 +19°C° 0 mm 1 mps 653 mmHg 76%
    05:00 +20°C° 0 mm 1 mps 654 mmHg 74%
    06:00 +20°C° 0 mm 1 mps 654 mmHg 71%
    07:00 +19°C° 0 mm 0 mps 654 mmHg 69%
    08:00 +25°C° 0 mm 1 mps 655 mmHg 54%
    09:00 +29°C° 0 mm 1 mps 656 mmHg 39%
    10:00 +33°C° 0 mm 1 mps 657 mmHg 24%
    11:00 +36°C° 0 mm 2 mps 656 mmHg 19%
    12:00 +37°C° 0 mm 3 mps 656 mmHg 15%
    13:00 +40°C° 0 mm 4 mps 655 mmHg 10%
    14:00 +39°C° 0 mm 3 mps 655 mmHg 9%
    15:00 +39°C° 0 mm 3 mps 654 mmHg 8%
    16:00 +39°C° 0 mm 3 mps 654 mmHg 7%
    17:00 +36°C° 0 mm 2 mps 654 mmHg 10%
    18:00 +34°C° 0 mm 2 mps 654 mmHg 12%
    19:00 +30°C° 0 mm 1 mps 653 mmHg 15%
    20:00 +28°C° 0 mm 2 mps 654 mmHg 25%
    21:00 +26°C° 0 mm 2 mps 654 mmHg 36%
    22:00 +25°C° 0 mm 3 mps 654 mmHg 46%
    23:00 +24°C° 0 mm 2 mps 654 mmHg 52%

    Tomorrow, 21 September, Thursday

    Time Temperature Precipitation Wind Pressure Humidity
    00:00 +23°C° 0 mm 2 mps 654 mmHg 58%
    01:00 +21°C° 0 mm 2 mps 654 mmHg 63%
    02:00 +21°C° 0 mm 1 mps 653 mmHg 66%
    03:00 +20°C° 0 mm 1 mps 653 mmHg 69%
    04:00 +20°C° 0 mm 1 mps 653 mmHg 72%
    05:00 +21°C° 0 mm 1 mps 653 mmHg 68%
    06:00 +21°C° 0 mm 1 mps 654 mmHg 64%
    07:00 +22°C° 0 mm 1 mps 654 mmHg 60%
    08:00 +27°C° 0 mm 1 mps 656 mmHg 47%
    09:00 +32°C° 0 mm 1 mps 657 mmHg 33%
    10:00 +35°C° 0 mm 0 mps 658 mmHg 20%
    11:00 +37°C° 0 mm 1 mps 657 mmHg 17%
    12:00 +38°C° 0 mm 2 mps 656 mmHg 15%
    13:00 +39°C° 0 mm 3 mps 655 mmHg 12%
    14:00 +39°C° 0 mm 2 mps 655 mmHg 12%
    15:00 +39°C° 0 mm 2 mps 654 mmHg 12%
    16:00 +38°C° 0 mm 2 mps 654 mmHg 11%
    17:00 +36°C° 0 mm 2 mps 654 mmHg 15%
    18:00 +32°C° 0 mm 2 mps 654 mmHg 19%
    19:00 +30°C° 0 mm 3 mps 654 mmHg 23%
    20:00 +28°C° 0 mm 3 mps 654 mmHg 30%
    21:00 +27°C° 0 mm 3 mps 654 mmHg 36%
    22:00 +25°C° 0 mm 3 mps 654 mmHg 43%
    23:00 +24°C° 0 mm 2 mps 654 mmHg 47%

    Day after tomorrow, 22 September, Friday

    Time Temperature Precipitation Wind Pressure Humidity
    00:00 +23°C° 0 mm 2 mps 653 mmHg 50%
    01:00 +22°C° 0 mm 1 mps 653 mmHg 54%
    02:00 +21°C° 0 mm 1 mps 653 mmHg 56%
    03:00 +20°C° 0 mm 1 mps 652 mmHg 57%
    04:00 +20°C° 0 mm 1 mps 652 mmHg 59%
    05:00 +21°C° 0 mm 1 mps 653 mmHg 56%
    06:00 +22°C° 0 mm 1 mps 653 mmHg 52%
    07:00 +22°C° 0 mm 1 mps 654 mmHg 49%
    08:00 +26°C° 0 mm 1 mps 655 mmHg 38%
    09:00 +30°C° 0 mm 1 mps 656 mmHg 28%
    10:00 +35°C° 0 mm 2 mps 657 mmHg 18%
    11:00 +37°C° 0 mm 2 mps 656 mmHg 16%
    12:00 +38°C° 0 mm 3 mps 655 mmHg 14%
    13:00 +39°C° 0 mm 3 mps 655 mmHg 12%
    14:00 +39°C° 0 mm 3 mps 654 mmHg 12%
    15:00 +39°C° 0 mm 3 mps 654 mmHg 12%
    16:00 +39°C° 0 mm 2 mps 653 mmHg 12%
    17:00 +36°C° 0 mm 2 mps 653 mmHg 15%
    18:00 +34°C° 0 mm 2 mps 653 mmHg 19%
    19:00 +30°C° 0 mm 2 mps 653 mmHg 22%
    20:00 +29°C° 0 mm 2 mps 654 mmHg 28%
    21:00 +27°C° 0 mm 2 mps 654 mmHg 34%
    22:00 +26°C° 0 mm 3 mps 654 mmHg 40%
    23:00 +25°C° 0 mm 2 mps 653 mmHg 43%

    23 September, Saturday

    Time Temperature Precipitation Wind Pressure Humidity
    00:00 +24°C° 0 mm 2 mps 653 mmHg 45%
    01:00 +23°C° 0 mm 2 mps 653 mmHg 48%
    02:00 +23°C° 0 mm 1 mps 652 mmHg 48%
    03:00 +23°C° 0 mm 1 mps 652 mmHg 49%
    04:00 +23°C° 0 mm 1 mps 652 mmHg 50%
    05:00 +23°C° 0 mm 1 mps 653 mmHg 48%
    06:00 +23°C° 0 mm 1 mps 653 mmHg 46%
    07:00 +24°C° 0 mm 1 mps 654 mmHg 45%
    08:00 +28°C° 0 mm 1 mps 655 mmHg 36%
    09:00 +32°C° 0 mm 1 mps 656 mmHg 27%
    10:00 +36°C° 0 mm 1 mps 657 mmHg 18%
    11:00 +37°C° 0 mm 1 mps 656 mmHg 17%
    12:00 +39°C° 0 mm 2 mps 655 mmHg 15%
    13:00 +40°C° 0 mm 3 mps 655 mmHg 13%
    14:00 +39°C° 0 mm 3 mps 654 mmHg 14%
    15:00 +38°C° 0 mm 3 mps 654 mmHg 14%
    16:00 +38°C° 0 mm 3 mps 653 mmHg 15%
    17:00 +36°C° 0 mm 2 mps 653 mmHg 18%
    18:00 +32°C° 0 mm 2 mps 653 mmHg 22%
    19:00 +30°C° 0 mm 2 mps 654 mmHg 25%
    20:00 +29°C° 0 mm 2 mps 654 mmHg 31%
    21:00 +27°C° 0 mm 3 mps 654 mmHg 37%
    22:00 +26°C° 0 mm 3 mps 654 mmHg 43%
    23:00 +25°C° 0 mm 3 mps 654 mmHg 46%

    24 September, Sunday

    Time Temperature Precipitation Wind Pressure Humidity
    00:00 +24°C° 0 mm 2 mps 653 mmHg 49%
    01:00 +23°C° 0 mm 2 mps 653 mmHg 53%
    02:00 +23°C° 0 mm 2 mps 653 mmHg 55%
    03:00 +21°C° 0 mm 2 mps 653 mmHg 58%
    04:00 +20°C° 0 mm 2 mps 653 mmHg 61%
    05:00 +22°C° 0 mm 1 mps 653 mmHg 61%
    06:00 +22°C° 0 mm 1 mps 654 mmHg 60%
    07:00 +22°C° 0 mm 1 mps 654 mmHg 60%
    08:00 +27°C° 0 mm 1 mps 655 mmHg 46%
    09:00 +31°C° 0 mm 1 mps 656 mmHg 33%
    10:00 +36°C° 0 mm 1 mps 657 mmHg 20%
    11:00 +38°C° 0 mm 2 mps 656 mmHg 17%
    12:00 +39°C° 0 mm 2 mps 656 mmHg 14%
    13:00 +40°C° 0 mm 3 mps 655 mmHg 11%
    14:00 +40°C° 0 mm 3 mps 654 mmHg 10%
    15:00 +40°C° 0 mm 3 mps 654 mmHg 9%
    16:00 +40°C° 0 mm 3 mps 653 mmHg 8%
    17:00 +37°C° 0 mm 3 mps 653 mmHg 13%
    18:00 +33°C° 0 mm 3 mps 653 mmHg 18%
    19:00 +29°C° 0 mm 3 mps 653 mmHg 24%
    20:00 +27°C° 0 mm 3 mps 653 mmHg 34%
    21:00 +25°C° 0 mm 3 mps 653 mmHg 45%
    22:00 +22°C° 0 mm 3 mps 653 mmHg 56%
    23:00 +21°C° 0 mm 3 mps 653 mmHg 61%

    25 September, Monday

    Time Temperature Precipitation Wind Pressure Humidity
    00:00 +20°C° 0 mm 2 mps 652 mmHg 66%
    01:00 +19°C° 0 mm 2 mps 652 mmHg 70%
    02:00 +18°C° 0 mm 2 mps 652 mmHg 73%
    03:00 +19°C° 0 mm 1 mps 652 mmHg 75%
    04:00 +18°C° 0 mm 1 mps 652 mmHg 78%
    05:00 +19°C° 0 mm 1 mps 653 mmHg 73%
    06:00 +20°C° 0 mm 1 mps 653 mmHg 67%
    07:00 +21°C° 0 mm 1 mps 654 mmHg 62%
    08:00 +26°C° 0 mm 1 mps 654 mmHg 49%
    09:00 +31°C° 0 mm 1 mps 655 mmHg 35%
    10:00 +33°C° 0 mm 0 mps 656 mmHg 21%
    11:00 +36°C° 0 mm 1 mps 656 mmHg 19%
    12:00 +37°C° 0 mm 1 mps 655 mmHg 16%
    13:00 +39°C° 0 mm 2 mps 654 mmHg 14%
    14:00 +39°C° 0 mm 2 mps 654 mmHg 13%
    15:00 +39°C° 0 mm 2 mps 653 mmHg 13%
    16:00 +39°C° 0 mm 1 mps 653 mmHg 12%
    17:00 +36°C° 0 mm 2 mps 652 mmHg 17%
    18:00 +33°C° 0 mm 3 mps 652 mmHg 22%
    19:00 +29°C° 0 mm 3 mps 652 mmHg 27%
    20:00 +28°C° 0 mm 3 mps 652 mmHg 35%
    21:00 +26°C° 0 mm 3 mps 652 mmHg 43%
    22:00 +24°C° 0 mm 3 mps 652 mmHg 51%
    23:00 +22°C° 0 mm 3 mps 652 mmHg 56%
    Show more